Flag for Japan Weather past 2 weeks in Himeji, Japan

Now
46 °F

Passing clouds.


Feels Like: 40 °F
Forecast: 27 / 40 °F
Wind: 16 mph from North

Location: Osaka International Airport

Current Time: Jan 27, 2015 at 7:45:38 PM

Latest Report: Jan 27, 2015 at 7:00 PM


Visibility: N/A

Pressure: 29.95 "Hg

Humidity: 71%

Dew point: 37 °F

Location of HimejiLocation

Historic Weather in Himeji — Graph

°F

Himeji temperature yesterday

Maximum temperature yesterday: 52 °F (at 12:00 PM)
Minimum temperature yesterday: 39 °F (at 5:00 AM)
Average temperature yesterday: 47 °F

Past Weeks' High & Low Weather Summary

 TemperatureHumidityPressure
High59 °F (Jan 27, 2:00 PM)100% (Jan 15, 7:00 AM)30.51 "Hg (Jan 15, 7:00 AM)
Low32 °F (Jan 14, 5:00 AM)32% (Jan 21, 1:00 PM)29.68 "Hg (Jan 22, 4:00 PM)
Average44 °F68%30.13 "Hg
* Reported Jan 12 6:00 PM — Jan 27 6:00 PM, Himeji, Weather by CustomWeather, © 2014

Note: Actual official high and low records may vary slightly from our data, if they occured in-between our weather recording intervals... More about our weather records

Advertising

Himeji weather history for previous 24 hours

 ConditionsComfort  
Time TempWeatherWind HumidityBarometerVisibility
6:00 PM
Jan 27
50 °FSprinkles. Partly cloudy.20 mph76%29.92 "HgN/A
5:00 PM50 °FSprinkles. Broken clouds.3 mph88%29.89 "HgN/A
4:00 PM54 °FScattered showers. Scattered clouds.5 mph72%29.89 "HgN/A
3:00 PM54 °FSprinkles. Partly sunny.10 mph72%29.86 "HgN/A
2:00 PM59 °FScattered showers. Scattered clouds.7 mph63%29.86 "HgN/A
1:00 PM57 °FPassing clouds.6 mph63%29.89 "HgN/A
12:00 PM55 °FScattered clouds.3 mph72%29.92 "HgN/A
11:00 AM52 °FFog.1 mph94%29.95 "Hg4 mi
10:00 AM50 °FSprinkles. Fog.2 mph94%29.98 "Hg4 mi
9:00 AM50 °FSprinkles. Fog.2 mph94%29.98 "Hg2 mi
8:00 AM50 °FFog.3 mph94%29.98 "Hg3 mi
7:00 AM48 °FFog.3 mph100%29.92 "Hg3 mi
6:00 AM48 °FFog.3 mph100%29.92 "Hg3 mi
5:00 AM48 °FSprinkles. Fog.3 mph100%29.92 "Hg3 mi
8:00 PM
Jan 26
48 °FSprinkles. Fog.5 mph94%29.98 "Hg3 mi
7:00 PM48 °FLight rain. Fog.6 mph94%30.01 "Hg3 mi
Weather by CustomWeather, © 2014

See weather overviewHow to use our weather pages